sat.trackr.live / text

‹ back to catalog

BEIDOU-3 G2 (PRN 144)

NORAD 45344 · 2020-017A

PAYLOAD ACTIVE UNKNOWN

§ Identity

Operator
Country
PRC
Launch date
2020-03-09
Launch site
XICLF
Launch vehicle
Mass (kg)
RCS (m²)

Purposes: comms, nav

External: N2YO · Heavens-Above · Gunter

§ Orbital elements

Epoch: 2026-05-25T04:07:30.069120Z

Period
1,436.11 min
Inclination
2.8202°
Eccentricity
0.0002465
Mean motion
1.00271024 rev/d
Perigee alt
35,776.4 km
Apogee alt
35,797.2 km
Semi-major
42,164.9 km
B*
0.0000e+0
RAAN
47.0104°
Arg perigee
11.6850°
Mean anomaly
325.9779°
Rev number
2,302

§ Raw data

BEIDOU-3 G2 (PRN 144)1 45344U 20017A   26145.17187580 -.00000142  00000+0  00000+0 0  99912 45344   2.8202  47.0104 0002465  11.6850 325.9779  1.00271024 23026

JSON: /api/v1/satellites/45344 · /tle

For live sub-satellite position, see the globe view (requires WebGL).

§ Visibility from observer

Set your observer location to see the next 7 days of passes ≥ 10°. The values pass through the URL so the page stays shareable.

No JS? Fill the form by hand. The geolocation button needs JavaScript.